Date,TemperatureHighF,TemperatureAvgF,TemperatureLowF,DewpointHighF,DewpointAvgF,DewpointLowF,HumidityHigh,HumidityAvg,HumidityLow,PressureMaxIn,PressureMinIn,WindSpeedMaxMPH,WindSpeedAvgMPH,GustSpeedMaxMPH,PrecipitationSumIn
2013-12-1,47,38,31,35,32,29,96,79,62,0.00,40.00,5,1,8,0.00
2013-12-2,50,41,35,36,34,32,94,76,52,0.00,40.00,1,0,5,0.00
2013-12-3,53,44,39,42,38,33,95,80,54,0.00,40.00,8,1,9,0.00
2013-12-4,54,46,35,51,43,35,99,87,74,0.00,40.00,2,0,8,0.00
2013-12-5,60,56,51,60,55,51,100,99,97,0.00,40.00,8,2,14,0.00
2013-12-6,63,50,38,62,50,38,100,100,98,0.00,40.00,11,4,15,0.51
2013-12-7,40,36,32,37,30,-100,100,84,69,0.00,40.00,5,2,15,0.12
2013-12-8,31,28,25,30,24,18,100,86,68,0.00,40.00,5,1,13,0.00
2013-12-9,36,34,31,36,34,31,100,100,100,0.00,40.00,6,2,10,0.30
2013-12-10,35,32,26,34,30,23,100,96,82,0.00,40.00,5,2,12,0.00
2013-12-11,34,28,22,23,21,17,89,76,60,0.00,40.00,6,1,16,0.07
2013-12-12,27,24,20,21,14,8,88,70,49,0.00,40.00,9,2,16,0.00
2013-12-13,37,29,19,22,16,11,80,60,44,0.00,40.00,11,3,20,0.03
2013-12-14,35,31,28,33,25,-100,100,83,69,0.00,40.00,6,3,16,0.53
2013-12-15,43,37,32,37,31,22,100,80,64,0.00,40.00,21,7,28,0.06
2013-12-16,34,28,24,26,16,10,77,61,44,0.00,40.00,10,5,21,0.00
2013-12-17,34,29,25,32,24,13,100,84,54,0.00,40.00,5,1,13,0.04
2013-12-18,38,31,25,26,23,19,94,74,49,0.00,40.00,11,3,21,0.00
2013-12-19,46,38,27,34,30,23,93,74,60,0.00,40.00,9,2,18,0.00
2013-12-20,54,48,42,51,38,33,92,70,55,0.00,40.00,8,3,15,0.00
2013-12-21,67,58,52,59,51,-100,92,82,67,0.00,40.00,12,5,21,0.00
2013-12-22,69,64,60,65,62,58,97,92,87,0.00,40.00,15,7,26,0.02
2013-12-23,62,55,42,61,52,35,100,93,78,0.00,40.00,6,3,17,0.21
2013-12-24,41,35,26,34,24,12,78,64,54,0.00,40.00,15,5,26,0.00
2013-12-25,30,26,21,19,11,7,75,57,42,0.00,40.00,7,2,17,0.00
2013-12-26,41,29,21,28,24,18,95,82,61,0.00,40.00,9,1,21,0.00
2013-12-27,45,35,27,27,25,23,90,69,41,0.00,40.00,9,1,16,0.00
2013-12-28,55,40,31,33,28,-100,89,66,41,0.00,40.00,10,2,19,0.00
2013-12-29,50,43,40,50,39,32,100,85,66,0.00,40.00,17,4,21,0.43
2013-12-30,44,38,29,40,33,20,100,83,67,0.00,40.00,9,4,23,0.00
2013-12-31,38,31,25,30,20,17,80,66,53,0.00,40.00,13,4,24,0.00